STARLINK-1413, 45689

Orbit data source: Space-Track

STARLINK-1413, 45689 is a payload satellite owned by SpaceX/Seattle (US) in LEO that was launched on Thu, 04 Jun 2020 UTC via an FALCON 9 launch vehicle from the Air Force Eastern Test Range (AFETR). Payload-class satellites include a variety of spacecraft equipped with specific instruments for various scientific and technological missions. These include communications satellites like Starlink; space stations such as the ISS; scientific satellites like the Hubble; Earth observation satellites from companies like Planet Labs, Umbra, and HawkEye 360; GPS; miniature CubeSats for education and research; and military/defense satellites.

Loading next visibility...
Identifier
45689, 2020-035AJ
Orbit
LEO
Country
Flag of USUS
Related business
Manufacturer
SpaceX/Seattle
Mission
Operational Commercial Communications
Bus & Motor
STARLINK, Unknown motor
Mass
260 kg wet, ~248 kg dry
Launch date (UTC)
2020-06-04 (6 years ago)
Launch vehicle
FALCON 9
Launch site
Air Force Eastern Test Range (AFETR)
Object type
Payload
Rocket body
Debris
Shape & HBR
Box + 1 Pan, 10.1 m
Radar Cross Section
13.562 m², Large (>1 m²)

Expand to show TLE details & history
Last TLE update: 10 hours ago

TLE from 10 hours ago
0 STARLINK-1413
1 45689U 20035AJ  25352.21343515  .00000013  00000-0  19750-4 0  9993
2 45689  53.0540  62.3785 0001175  92.2309 267.8815 15.06398054306503
Epoch: 2025-12-18T05:07Z
TLE epoch observation values (Epoch: 2025-12-18T05:07:20.796Z)
Latitude
-0.00001°
Longitude
-101.53032°
Altitude
548.127 km
Speed
7.589 km/s
True Right ascension
04h 09m 30s
True Declination
0° 00' 00"
Sunlit
Object was in full shadow at epoch
Visualization orbit readout
Latitude
Unknown
Longitude
Unknown
Altitude
Unknown
Speed
Unknown
Apparent Right ascension
Unknown
Apparent Declination
Unknown
Sunlit
N/A
Visualization observer readout
Local Sidereal Time
13:45:20
Azimuth
Unknown
Elevation
Unknown
Doppler factor
Unknown
Orbital elements
Apogee altitude
548.302 km
Perigee altitude
546.675 km
Semi-major axis
6,925.625 km
Eccentricity
0.00012
Inclination
53.054°
RAAN
62.3785°
Arg. of periapsis
92.2309°
True anomaly
267.86804°
Mean anomaly
267.8815°
Eccentric anomaly
267.87477°
Mean motion
3.76578 °/min
Orbital period
95.6 mins
BSTAR
0.00001975
Loading maneuver chart data...
Computing Atmospheric mass density...

Documentation

Showing up to 5 results
|